Glendive, MT

11:05 PM MST on February 20, 2018 (GMT -0700)
Dawson Community

Weather History for KGDV - December, 2014

Change the Weather History Date:

Friday, December 19, 2014

  Actual Average Record
Temperature  
Mean Temperature 32 °F 20 °F  
Max Temperature 42 °F 29 °F 51 °F (2004)
Min Temperature 23 °F 10 °F -17 °F (1998)
Degree Days  
Heating Degree Days 32 46  
Month to date heating degree days 819  
Year to date heating degree days 6721  
Since 1 July heating degree days 2429  
Cooling Degree Days 0 0  
Month to date cooling degree days 0  
Year to date cooling degree days 382  
Since 1 July cooling degree days 382  
Moisture  
Dew Point 24 °F    
Average Humidity 77    
Maximum Humidity 93    
Minimum Humidity 53    
Precipitation  
Precipitation 0.01 in 0.01 in 0.01 in (2014)
Month to date precipitation 0.22  
Year to date precipitation 13.39  
Sea Level Pressure  
Sea Level Pressure 29.91 in    
Wind  
Wind Speed 6 mph (South)    
Max Wind Speed 9 mph    
Max Gust Speed -    
Visibility 10 miles    
Events      
T = Trace of Precipitation, MM = Missing Value Source: NWS Daily Summary

Daily Weather History Graph

Daily Weather History Graph

Search for Another Location

Airport or City:

Trip Planner

Search our weather history database for the weather conditions in past years. The results will help you decide how hot, cold, wet, or windy it might be!

Date:

Astronomy

Dec. 19, 2014 Rise Set
Actual Time 7:41 AM MST 4:11 PM MST
Civil Twilight 7:05 AM MST 4:46 PM MST
Nautical Twilight 6:27 AM MST 5:25 PM MST
Astronomical Twilight 5:49 AM MST 6:03 PM MST
Moon 4:50 AM MST (12/19) 2:42 PM MST (12/19)
Length of Visible Light 9h 40m
Length of Day
8h 29m
Waning Crescent, 6% of the Moon is Illuminated
Dec 19
Waning Crescent
Dec 21
New
Dec 28
First Quarter
Jan 4
Full
Jan 13
Last Quarter

Hourly Weather History & Observations

Time (MST) Temp. Windchill Dew Point Humidity Pressure Visibility Wind Dir Wind Speed Gust Speed Precip Events Conditions
12:15 AM 28.4 °F 21.2 °F 24.8 °F 86% 29.92 in 10.0 mi South 6.9 mph - N/A   Clear
12:35 AM 28.4 °F 21.2 °F 24.8 °F 86% 29.92 in 10.0 mi South 6.9 mph - N/A   Clear
12:55 AM 26.6 °F 21.2 °F 24.8 °F 93% 29.92 in 10.0 mi South 4.6 mph - N/A   Clear
1:15 AM 28.4 °F 22.2 °F 24.8 °F 86% 29.92 in 10.0 mi SSW 5.8 mph - N/A   Clear
1:35 AM 28.4 °F 23.3 °F 24.8 °F 86% 29.93 in 10.0 mi South 4.6 mph - N/A   Clear
1:55 AM 28.4 °F 23.3 °F 24.8 °F 86% 29.93 in 10.0 mi South 4.6 mph - N/A   Clear
2:15 AM 28.4 °F 19.7 °F 24.8 °F 86% 29.93 in 10.0 mi South 9.2 mph - N/A   Clear
2:35 AM 30.2 °F 22.6 °F 24.8 °F 80% 29.93 in 10.0 mi SSW 8.1 mph - N/A   Clear
2:55 AM 28.4 °F 22.2 °F 24.8 °F 86% 29.93 in 10.0 mi SSW 5.8 mph - N/A   Clear
3:15 AM 28.4 °F 20.4 °F 23.0 °F 80% 29.93 in 10.0 mi South 8.1 mph - N/A   Clear
3:35 AM 26.6 °F 19.1 °F 23.0 °F 86% 29.93 in 10.0 mi South 6.9 mph - N/A   Clear
3:55 AM 26.6 °F 20.0 °F 23.0 °F 86% 29.93 in 10.0 mi South 5.8 mph - N/A   Clear
4:15 AM 24.8 °F 17.9 °F 21.2 °F 86% 29.93 in 10.0 mi SSW 5.8 mph - N/A   Clear
4:35 AM 26.6 °F 21.2 °F 24.8 °F 93% 29.93 in 10.0 mi South 4.6 mph - N/A   Clear
4:55 AM 26.6 °F 20.0 °F 21.2 °F 80% 29.93 in 10.0 mi SSW 5.8 mph - N/A   Clear
5:15 AM 24.8 °F 17.9 °F 21.2 °F 86% 29.93 in 10.0 mi SSW 5.8 mph - N/A   Clear
5:35 AM 24.8 °F 20.5 °F 19.4 °F 80% 29.93 in 10.0 mi SSW 3.5 mph - N/A   Partly Cloudy
5:55 AM 24.8 °F 17.9 °F 21.2 °F 86% 29.93 in 10.0 mi South 5.8 mph - N/A   Partly Cloudy
6:15 AM 26.6 °F 21.2 °F 23.0 °F 86% 29.93 in 10.0 mi South 4.6 mph - N/A   Clear
6:35 AM 24.8 °F 17.9 °F 21.2 °F 86% 29.93 in 10.0 mi South 5.8 mph - N/A   Clear
6:55 AM 24.8 °F 17.9 °F 21.2 °F 86% 29.93 in 10.0 mi South 5.8 mph - N/A   Partly Cloudy
7:15 AM 24.8 °F 17.9 °F 21.2 °F 86% 29.94 in 10.0 mi SW 5.8 mph - N/A   Partly Cloudy
7:35 AM 24.8 °F 16.9 °F 21.2 °F 86% 29.93 in 10.0 mi South 6.9 mph - N/A   Clear
7:55 AM 24.8 °F - 21.2 °F 86% 29.94 in 10.0 mi Calm Calm - N/A   Clear
8:15 AM 24.8 °F 20.5 °F 21.2 °F 86% 29.93 in 10.0 mi SSE 3.5 mph - N/A   Clear
8:35 AM 26.6 °F 19.1 °F 23.0 °F 86% 29.93 in 10.0 mi South 6.9 mph - N/A   Clear
8:55 AM 28.4 °F 21.2 °F 24.8 °F 86% 29.93 in 10.0 mi South 6.9 mph - 0.01 in   Partly Cloudy
9:15 AM 28.4 °F 21.2 °F 24.8 °F 86% 29.93 in 10.0 mi South 6.9 mph - N/A   Clear
9:35 AM 30.2 °F 25.4 °F 24.8 °F 80% 29.94 in 10.0 mi SSE 4.6 mph - N/A   Partly Cloudy
9:55 AM 32.0 °F 24.8 °F 26.6 °F 80% 29.95 in 10.0 mi South 8.1 mph - N/A   Clear
10:15 AM 33.8 °F 30.8 °F 24.8 °F 70% 29.95 in 10.0 mi SSE 3.5 mph - N/A   Clear
10:35 AM 33.8 °F 28.6 °F 26.6 °F 75% 29.94 in 10.0 mi SSE 5.8 mph - N/A   Clear
10:55 AM 35.6 °F 29.2 °F 26.6 °F 70% 29.93 in 10.0 mi South 8.1 mph - N/A   Clear
11:15 AM 37.4 °F 31.4 °F 26.6 °F 65% 29.93 in 10.0 mi South 8.1 mph - N/A   Clear
11:35 AM 39.2 °F 35.0 °F 26.6 °F 61% 29.93 in 10.0 mi SSW 5.8 mph - N/A   Clear
11:55 AM 39.2 °F 33.6 °F 26.6 °F 61% 29.92 in 10.0 mi South 8.1 mph - N/A   Clear
12:15 PM 41.0 °F 36.4 °F 26.6 °F 57% 29.91 in 10.0 mi SW 6.9 mph - N/A   Clear
12:35 PM 41.0 °F 36.4 °F 26.6 °F 57% 29.91 in 10.0 mi South 6.9 mph - N/A   Clear
12:55 PM 41.0 °F 36.4 °F 26.6 °F 57% 29.90 in 10.0 mi SSW 6.9 mph - N/A   Clear
1:15 PM 41.0 °F 35.8 °F 26.6 °F 57% 29.90 in 10.0 mi South 8.1 mph - N/A   Clear
1:35 PM 42.8 °F 38.6 °F 26.6 °F 53% 29.89 in 10.0 mi South 6.9 mph - N/A   Clear
1:55 PM 42.8 °F 38.6 °F 26.6 °F 53% 29.89 in 10.0 mi South 6.9 mph - N/A   Clear
2:15 PM 42.8 °F 38.0 °F 26.6 °F 53% 29.89 in 10.0 mi South 8.1 mph - N/A   Clear
2:35 PM 41.0 °F 35.2 °F 26.6 °F 57% 29.89 in 10.0 mi South 9.2 mph - N/A   Clear
2:55 PM 39.2 °F 33.0 °F 26.6 °F 61% 29.90 in 10.0 mi South 9.2 mph - N/A   Clear
3:15 PM 39.2 °F 33.6 °F 24.8 °F 56% 29.89 in 10.0 mi SSE 8.1 mph - N/A   Clear
3:35 PM 37.4 °F 32.1 °F 24.8 °F 60% 29.90 in 10.0 mi South 6.9 mph - N/A   Clear
3:55 PM 35.6 °F 29.9 °F 24.8 °F 65% 29.90 in 10.0 mi South 6.9 mph - N/A   Clear
4:15 PM 33.8 °F 27.0 °F 24.8 °F 70% 29.89 in 10.0 mi SSW 8.1 mph - N/A   Clear
4:35 PM 33.8 °F 27.7 °F 24.8 °F 70% 29.90 in 10.0 mi SSW 6.9 mph - N/A   Clear
4:55 PM 33.8 °F 27.7 °F 24.8 °F 70% 29.90 in 10.0 mi SSW 6.9 mph - N/A   Clear
5:15 PM 33.8 °F 29.6 °F 24.8 °F 70% 29.89 in 10.0 mi SW 4.6 mph - N/A   Clear
5:35 PM 33.8 °F 30.8 °F 23.0 °F 65% 29.89 in 10.0 mi WSW 3.5 mph - N/A   Clear
5:55 PM 28.4 °F 22.2 °F 21.2 °F 74% 29.89 in 10.0 mi WSW 5.8 mph - N/A   Clear
6:15 PM 28.4 °F 22.2 °F 21.2 °F 74% 29.89 in 10.0 mi WSW 5.8 mph - N/A   Clear
6:35 PM 28.4 °F 22.2 °F 21.2 °F 74% 29.89 in 10.0 mi SW 5.8 mph - N/A   Clear
6:55 PM 26.6 °F 19.1 °F 21.2 °F 80% 29.89 in 10.0 mi WSW 6.9 mph - N/A   Clear
7:15 PM 26.6 °F - 21.2 °F 80% 29.89 in 10.0 mi Calm Calm - N/A   Clear
7:35 PM 30.2 °F - 24.8 °F 80% 29.89 in 10.0 mi Calm Calm - N/A   Clear
7:55 PM 30.2 °F - 24.8 °F 80% 29.89 in 10.0 mi Calm Calm - N/A   Clear
8:15 PM 26.6 °F 21.2 °F 19.4 °F 74% 29.89 in 10.0 mi SSW 4.6 mph - N/A   Clear
8:35 PM 23.0 °F 18.4 °F 17.6 °F 80% 29.89 in 10.0 mi SW 3.5 mph - N/A   Clear
8:55 PM 23.0 °F - 19.4 °F 86% 29.89 in 10.0 mi Calm Calm - N/A   Clear
9:15 PM 23.0 °F - 17.6 °F 80% 29.89 in 10.0 mi Calm Calm - N/A   Clear
9:35 PM 28.4 °F 23.3 °F 23.0 °F 80% 29.89 in 10.0 mi South 4.6 mph - N/A   Clear
9:55 PM 23.0 °F 17.0 °F 17.6 °F 80% 29.89 in 10.0 mi SW 4.6 mph - N/A   Mostly Cloudy
10:15 PM 26.6 °F 22.6 °F 21.2 °F 80% 29.88 in 10.0 mi South 3.5 mph - N/A   Overcast
10:35 PM 26.6 °F - 23.0 °F 86% 29.89 in 10.0 mi Calm Calm - N/A   Mostly Cloudy
10:55 PM 26.6 °F 21.2 °F 23.0 °F 86% 29.88 in 10.0 mi South 4.6 mph - N/A   Mostly Cloudy
11:15 PM 26.6 °F 21.2 °F 23.0 °F 86% 29.87 in 10.0 mi SSE 4.6 mph - N/A   Mostly Cloudy
11:35 PM 26.6 °F 20.0 °F 23.0 °F 86% 29.87 in 10.0 mi South 5.8 mph - N/A   Overcast
11:55 PM 26.6 °F 22.6 °F 23.0 °F 86% 29.87 in 10.0 mi SSW 3.5 mph - N/A   Overcast